Location: Montreal
(45.5000°N, 73.5833°W)
Time: 05:33:14
(UTC-05:00)

Vanguard 3 - Visible Passes

Search period start: 17 January 2018 00:00
Search period end: 27 January 2018 00:00
Orbit: 508 x 3264 km, 33.4° (Epoch: 15 January)

Date Brightness Start Highest point End Pass type
(mag) Time Alt. Az. Time Alt. Az. Time Alt. Az.
17 Jan 10.6 01:34:08 37° ESE 01:34:08 37° ESE 01:45:25 10° E visible
17 Jan 10.1 03:38:41 52° SSW 03:42:34 57° S 04:00:22 10° ESE visible
17 Jan 10.4 05:43:15 18° W 05:57:51 46° SSW 06:12:41 10° SE visible
18 Jan 11.2 00:24:16 18° E 00:24:16 18° E 00:28:30 10° E visible
18 Jan 10.2 02:28:49 52° SSE 02:28:49 52° SSE 02:44:52 10° E visible
18 Jan 10.2 04:33:23 37° WSW 04:41:51 53° SSW 04:58:42 10° ESE visible
18 Jan 10.6 06:39:46 10° W 06:56:09 35° SW 07:09:16 10° SSE visible
19 Jan 10.8 01:18:58 33° ESE 01:18:58 33° ESE 01:28:35 10° E visible
19 Jan 10.0 03:23:31 55° SSW 03:25:28 56° S 03:43:49 10° ESE visible
19 Jan 10.4 05:28:05 22° W 05:40:45 45° SSW 05:56:15 10° SE visible
20 Jan 11.3 00:09:06 15° E 00:09:06 15° E 00:11:32 10° E visible
20 Jan 10.3 02:13:40 48° SE 02:13:40 48° SE 02:28:06 10° ESE visible
20 Jan 10.2 04:18:13 41° WSW 04:24:43 52° SSW 04:42:08 10° SE visible
20 Jan 10.7 06:23:03 10° W 06:39:02 32° SW 06:52:37 10° SSE visible
21 Jan 10.9 01:03:49 28° ESE 01:03:49 28° ESE 01:11:37 10° E visible
21 Jan 10.0 03:08:23 56° S 03:08:23 56° S 03:27:06 10° ESE visible
21 Jan 10.5 05:12:57 26° WSW 05:23:36 42° SSW 05:39:36 10° SE visible
21 Jan 11.5 23:54:00 11° E 23:54:00 11° E 23:54:28 10° E visible
22 Jan 10.4 01:58:34 43° SE 01:58:34 43° SE 02:11:11 10° ESE visible
22 Jan 10.1 04:03:08 45° SW 04:07:35 50° SSW 04:25:24 10° SE visible
22 Jan 10.8 06:07:42 12° W 06:21:53 30° SW 06:35:42 10° SSE visible
23 Jan 11.0 00:48:46 23° ESE 00:48:46 23° ESE 00:54:32 10° E visible
23 Jan 10.1 02:53:20 53° S 02:53:20 53° S 03:10:13 10° ESE visible
23 Jan 10.4 04:57:54 29° WSW 05:06:25 40° SSW 05:22:44 10° SSE visible
24 Jan 10.6 01:43:35 37° SE 01:43:35 37° SE 01:54:08 10° ESE visible
24 Jan 10.1 03:48:09 46° SW 03:50:28 48° SSW 04:08:29 10° SE visible
24 Jan 10.8 05:52:43 15° W 06:04:42 27° SW 06:18:30 10° S visible
25 Jan 11.2 00:33:51 18° ESE 00:33:51 18° ESE 00:37:22 10° E visible
25 Jan 10.2 02:38:26 47° SSE 02:38:26 47° SSE 02:53:10 10° ESE visible
25 Jan 10.4 04:43:00 31° WSW 04:49:15 37° SSW 05:05:38 10° SSE visible
25 Jan 11.1 06:53:28 10° WSW 07:02:24 15° SW 07:10:57 10° SSW visible
26 Jan 10.8 01:28:44 30° ESE 01:28:44 30° ESE 01:36:58 10° ESE visible
26 Jan 10.2 03:33:19 45° SSW 03:33:23 45° SSW 03:51:21 10° SE visible
26 Jan 10.8 05:37:54 16° WSW 05:47:32 25° SW 06:00:58 10° S visible
